Regional Weather Roundup
Issued by NWS

Home | Current Version | Previous Version | Text Only | Print | Product List | Glossary Off
Versions: 1 2 3 4 5 6 7 8 9 10 11 12 13 14 15 16 17 18 19 20 21 22 23 24 25 26 27 28 29 30 31 32 33 34 35 36 37 38 39 40 41 42 43 44 45 46 47 48 49 50

000
ASUS43 KIND 180159
RWRIN

WEATHER ROUNDUP FOR INDIANA
NATIONAL WEATHER SERVICE INDIANAPOLIS IN
1000 PM EDT WED SEP 17 2014

NOTE: "FAIR" INDICATES FEW OR NO CLOUDS BELOW 12,000 FEET WITH NO
SIGNIFICANT WEATHER AND/OR OBSTRUCTIONS TO VISIBILITY.

* - STATION DOES NOT REPORT WEATHER SUCH AS PRECIPITATION OR FOG.

+ - STATION NOT QUALITY CONTROLLED BY THE NATIONAL WEATHER SERVICE.
    USE DATA WITH CAUTION...ESPECIALLY DEWPOINT AND RELATIVE
    HUMIDITY OBSERVATIONS.

INZ001>003-010>013-019-020-180300-
NORTHWEST INDIANA

CITY           SKY/WX    TMP DP  RH WIND       PRES   REMARKS
GARY /AIRPORT/ CLEAR     54  50  87 SE5       30.02R
KNOX *+        CLEAR     52  47  83 CALM      30.01R
RENSSELAER +   CLEAR     55  52  88 NE5       30.01R
VALPARAISO     CLEAR     53  47  79 NE3       30.02R

$$

LMZ046-743>745-180300-
SOUTHERN LAKE MICHIGAN

STATION/POSITION TIME  TEMP WIND        PRES
                       AIR  DIR/SP/G
                 (UTC) (F)  (DEG/KT/KT) (MB)
MICHIGAN CITY    0100   60   70/  7/  9   N/A

$$

INZ004-005-014>016-021>024-180300-
NORTH CENTRAL INDIANA

CITY           SKY/WX    TMP DP  RH WIND       PRES   REMARKS
GOSHEN         CLEAR     52  46  80 CALM      30.01R
SOUTH BEND     CLEAR     51  45  79 CALM      30.03R
WARSAW +       CLEAR     54  45  71 N3        30.02R

$$

INZ006>009-017-018-025>027-180300-
NORTHEAST INDIANA

CITY           SKY/WX    TMP DP  RH WIND       PRES   REMARKS
ANGOLA *+      CLEAR     50  48  93 CALM      30.01R
FORT WAYNE     PTCLDY    51  49  92 CALM      30.01R

$$

INZ028-029-035-036-043>045-051>053-180300-
WEST CENTRAL INDIANA

CITY           SKY/WX    TMP DP  RH WIND       PRES   REMARKS
GREENCASTLE +  CLEAR     52  52 100 CALM      30.02R
LAFAYETTE      CLOUDY    55  53  93 CALM      30.00R
TERRE HAUTE    CLEAR     54  51  90 CALM      30.02R

$$

INZ030>032-037>040-046>048-054>057-064-065-180300-
CENTRAL INDIANA

CITY           SKY/WX    TMP DP  RH WIND       PRES   REMARKS
FRANKFORT +    PTCLDY    56  56 100 CALM      30.01R
INDIANAPOLIS   MOCLDY    56  51  84 W6        30.00R
-EAGLE CREEK   MOCLDY    59  50  72 CALM      30.00R
KOKOMO *+      CLEAR     54  46  76 CALM      30.01R
MT COMFORT *+  PTCLDY    52  52 100 CALM      30.01R
SHELBYVILLE    CLEAR     53  49  86 CALM      30.00R
ZIONSVILLE +   MOCLDY    54  50  88 CALM      30.01R

$$

INZ033-034-041-042-049-050-058-059-180300-
EAST CENTRAL INDIANA

CITY           SKY/WX    TMP DP  RH WIND       PRES   REMARKS
MUNCIE         CLEAR     53  49  86 CALM      30.00R

$$

INZ060-061-067>069-081>083-085>088-180300-
SOUTHWEST INDIANA

CITY           SKY/WX    TMP DP  RH WIND       PRES   REMARKS
EVANSVILLE     CLOUDY    64  55  72 CALM      29.97S

$$

INZ062-063-066-070>080-084-089>092-180300-
SOUTH CENTRAL AND SOUTHEAST INDIANA

CITY           SKY/WX    TMP DP  RH WIND       PRES   REMARKS
BLOOMINGTON    CLEAR     52  51  97 CALM      30.01R FOG

$$



USA.gov is the U.S. government's official web portal to all federal, state and local government web resources and services.